Weather History for Kenora, ON

Change the Weather History Date:

Thursday, January 5, 2012

  Actual Average Record
Temperature  
Mean Temperature 28 °F -  
Max Temperature 36 °F 9 °F 35 °F (2012)
Min Temperature 20 °F -8 °F -29 °F (2004)
Degree Days  
Heating Degree Days 37    
Moisture  
Dew Point 23 °F    
Average Humidity 80    
Maximum Humidity 93    
Minimum Humidity 70    
Precipitation  
Precipitation 0.00 in 0.03 in - ()
Sea Level Pressure  
Sea Level Pressure 29.56 in    
Wind  
Wind Speed 7 mph ()    
Max Wind Speed 15 mph    
Max Gust Speed 17 mph    
Visibility 15.0 miles    
Events      
Averages and records for this station are not official NWS values.
T = Trace of Precipitation, MM = Missing Value Source: Averaged Metar Reports

Daily Weather History Graph

Daily Weather History Graph

Search for Another Location

Airport:

Trip Planner

Search our weather history database for the weather conditions in past years. The results will help you decide how hot, cold, wet, or windy it might be!

Date:

Astronomy

Jan. 05, 2012 Rise Set
Actual Time 8:14 AM CST 4:31 PM CST
Civil Twilight 7:36 AM CST 5:08 PM CST
Nautical Twilight 6:55 AM CST 5:49 PM CST
Astronomical Twilight 6:16 AM CST 6:28 PM CST
Moon 1:34 PM CST (1/5) 5:00 AM CST (1/5)
Length of Visible Light 9h 32m
Length of Day
8h 16m
Waxing Gibbous, 88% of the Moon is Illuminated
Jan 5
Waxing Gibbous
Jan 9
Full
Jan 16
Last Quarter
Jan 23
New
Jan 30
First Quarter

Hourly Weather History & Observations

Time (CST) Temp. Windchill Dew Point Humidity Pressure Visibility Wind Dir Wind Speed Gust Speed Precip Events Conditions
12:00 AM 23 °F - 17 °F 70% 29.90 in 15 mi SSE 5.8 mph - -   Overcast
12:00 AM 23.0 °F 15.8 °F 17.6 °F 80% 29.90 in 15.0 mi West 5.8 mph - N/A   Overcast
1:00 AM 23.0 °F 14.7 °F 17.6 °F 80% 29.89 in 15.0 mi ESE 6.9 mph - N/A   Overcast
2:00 AM 23.0 °F 15.8 °F 17.6 °F 80% 29.86 in 15.0 mi SSE 5.8 mph - N/A   Overcast
3:00 AM 23.0 °F 15.8 °F 17.6 °F 80% 29.82 in 15.0 mi South 5.8 mph - N/A   Overcast
4:00 AM 23.0 °F 13.1 °F 17.6 °F 80% 29.76 in 15.0 mi SSE 9.2 mph - N/A   Mostly Cloudy
5:00 AM 23.0 °F 11.7 °F 17.6 °F 80% 29.70 in 15.0 mi SSE 11.5 mph 17.3 mph N/A   Scattered Clouds
6:00 AM 24 °F - 18 °F 70% 29.64 in 15 mi South 15.0 mph - -   Mostly Cloudy
6:00 AM 24.8 °F 14.0 °F 17.6 °F 74% 29.64 in 15.0 mi South 11.5 mph 17.3 mph N/A   Mostly Cloudy
7:00 AM 24.8 °F 14.0 °F 21.2 °F 86% 29.62 in 15.0 mi SSE 11.5 mph 17.3 mph N/A   Mostly Cloudy
8:00 AM 24.8 °F 13.4 °F 21.2 °F 86% 29.55 in 15.0 mi SSE 12.7 mph - N/A   Mostly Cloudy
9:00 AM 24.8 °F 14.6 °F 23.0 °F 93% 29.53 in 15.0 mi South 10.4 mph - N/A   Mostly Cloudy
10:00 AM 26.6 °F 17.5 °F 23.0 °F 86% 29.50 in 15.0 mi South 9.2 mph - N/A   Mostly Cloudy
11:00 AM 28.4 °F 19.1 °F 24.8 °F 86% 29.48 in 15.0 mi SSW 10.4 mph - N/A   Mostly Cloudy
12:00 PM 30 °F - 26 °F 78% 29.43 in 15 mi SW 11.5 mph - -   Overcast
12:00 PM 30.2 °F 20.8 °F 26.6 °F 86% 29.43 in 15.0 mi SW 11.5 mph - N/A   Overcast
2:00 PM 33.8 °F 30.8 °F 26.6 °F 75% 29.40 in 15.0 mi SW 3.5 mph - N/A   Mostly Cloudy
3:00 PM 35.6 °F 29.2 °F 28.4 °F 75% 29.38 in 15.0 mi SSW 8.1 mph - N/A   Partly Cloudy
4:00 PM 33.8 °F 28.6 °F 26.6 °F 75% 29.40 in 15.0 mi SW 5.8 mph - N/A   Partly Cloudy
5:00 PM 33.8 °F 28.6 °F 26.6 °F 75% 29.39 in 15.0 mi WSW 5.8 mph - N/A   Partly Cloudy
6:00 PM 35 °F - 29 °F 70% 29.37 in 15 mi West 5.8 mph - -   Clear
6:00 PM 35.6 °F 30.7 °F 28.4 °F 75% 29.37 in 15.0 mi West 5.8 mph - N/A   Partly Cloudy
7:00 PM 33.8 °F 27.7 °F 28.4 °F 81% 29.39 in 15.0 mi WSW 6.9 mph - N/A   Partly Cloudy
8:00 PM 32.0 °F 27.5 °F 28.4 °F 87% 29.39 in 15.0 mi WSW 4.6 mph - N/A   Clear
10:00 PM 30.2 °F 24.3 °F 26.6 °F 86% 29.37 in 15.0 mi WSW 5.8 mph - N/A   Clear
11:00 PM 30.2 °F 23.4 °F 26.6 °F 86% 29.37 in 15.0 mi West 6.9 mph - N/A   Partly Cloudy